Waarnemingen

Advertentie
Mijn weer
Norrkoping, Zweden (2574): temperatuur & dauwpunt: 16.08.2018 01:00:00 - 22.08.2018 01:00:00 (CEST)Norrkoping, Zweden (2574): windsnelheid & windstoten: 16.08.2018 01:00:00 - 22.08.2018 01:00:00 (CEST)Norrkoping, Zweden (2574): windrichting: 16.08.2018 01:00:00 - 22.08.2018 01:00:00 (CEST)Norrkoping, Zweden (2574): luchtdruk: 16.08.2018 01:00:00 - 22.08.2018 01:00:00 (CEST)Norrkoping, Zweden (2574): zicht: 16.08.2018 01:00:00 - 22.08.2018 01:00:00 (CEST)Norrkoping, Zweden (2574): neerslag: 16.08.2018 01:00:00 - 22.08.2018 01:00:00 (CEST)
Datum & Tijd tt [°C] td [°C] ff [km/u] ff [kn] fx [km/u] fx [kn] dd ppp [hPa] vv [km] rr [mm]
22.08.2018 01:00:00 8,4 6,0 0 0 2 1 N 1020,5 50 0,0
22.08.2018 00:00:00 9,3 6,0 0 0 3 1 N 1020,3 50 0,0
21.08.2018 23:00:00 10,3 6,6 3 2 6 3 ZZW 1020,1 50 0,0
21.08.2018 22:00:00 11,5 6,6 0 0 4 2 N 1019,9 50 0,0
21.08.2018 21:00:00 13,7 6,5 2 1 4 2 Z 1019,7 50 0,0
21.08.2018 20:00:00 16,2 5,2 0 0 8 5 N 1019,2 50 0,0
21.08.2018 19:00:00 19,1 4,8 6 3 17 9 NW 1019,1 50 0,0
21.08.2018 18:00:00 18,8 4,9 8 5 18 10 NW 1019,1 50 0,0
21.08.2018 17:00:00 20,7 5,5 8 5 21 12 NW 1018,9 48 0,0
21.08.2018 16:00:00 19,8 5,1 9 5 18 10 WNW 1018,8 47 0,0
21.08.2018 15:00:00 19,4 5,1 12 6 26 14 WNW 1018,8 48 0,0
21.08.2018 14:00:00 19,0 6,5 10 6 22 12 WNW 1018,9 48 0,0
21.08.2018 13:00:00 17,9 6,7 11 6 27 14 WNW 1018,7 50 0,0
21.08.2018 12:00:00 17,4 7,2 9 5 21 11 WNW 1018,5 45 0,0
21.08.2018 11:00:00 16,8 8,2 8 5 19 10 W 1018,1 43 0,0
21.08.2018 10:00:00 15,4 7,2 9 5 17 9 NW 1017,9 43 0,0
21.08.2018 09:00:00 14,2 8,2 8 4 16 9 NW 1017,5 48 0,0
21.08.2018 08:00:00 13,2 8,7 6 3 10 6 WNW 1017,0 41 0,0
21.08.2018 07:00:00 11,0 8,6 4 2 10 6 WNW 1016,2 50 0,0
21.08.2018 06:00:00 9,9 8,2 3 2 14 7 W 1015,4 50 0,0
21.08.2018 05:00:00 10,6 8,7 6 3 15 8 WNW 1014,6 50 0,0
21.08.2018 04:00:00 10,2 9,1 3 2 11 6 W 1014,2 50 0,0
21.08.2018 03:00:00 11,1 9,5 7 4 12 7 WNW 1013,9 50 0,0
21.08.2018 02:00:00 11,4 10,0 8 4 19 10 WNW 1013,2 47 0,0
21.08.2018 01:00:00 12,5 10,7 8 4 16 9 WNW 1012,5 50 0,0
21.08.2018 00:00:00 13,2 11,4 7 4 19 10 WNW 1012,1 50 0,0
20.08.2018 23:00:00 13,6 11,5 7 4 19 10 NW 1011,2 50 0,0
20.08.2018 22:00:00 13,9 11,9 7 4 22 12 NW 1010,4 50 0,0
20.08.2018 21:00:00 13,7 10,7 3 2 27 15 NW 1010,0 50 0,0
20.08.2018 20:00:00 14,2 9,8 14 8 49 26 N 1009,1 50 0,0
20.08.2018 19:00:00 17,8 10,9 4 2 16 8 WNW 1007,8 48 0,0
20.08.2018 18:00:00 19,1 10,4 7 4 22 12 NNW 1007,7 50 0,0
20.08.2018 17:00:00 19,7 10,7 7 4 14 8 NW 1007,5 45 0,0
20.08.2018 16:00:00 19,1 12,1 8 4 20 11 NNW 1007,7 41 0,0
20.08.2018 15:00:00 18,4 13,3 9 5 20 11 WNW 1007,2 33 0,0
20.08.2018 14:00:00 18,8 14,9 8 5 17 9 W 1007,3 32 0,0
20.08.2018 13:00:00 16,4 14,2 5 3 12 7 NNW 1007,5 26 0,1
20.08.2018 12:00:00 15,5 14,7 4 2 8 5 N 1007,5 6 0,2
20.08.2018 11:00:00 14,6 14,0 3 2 9 5 NNO 1007,4 3,5 0,9
20.08.2018 10:00:00 14,2 13,7 4 2 12 6 NNO 1007,4 3,7 1,5
20.08.2018 09:00:00 14,3 13,8 3 1 9 5 N 1007,4 3,8 2,1
20.08.2018 08:00:00 14,2 13,7 2 1 8 4 NNO 1007,6 3,1 0,6
20.08.2018 07:00:00 14,3 13,8 3 2 6 4 NO 1007,8 3,2 0,5
20.08.2018 06:00:00 14,5 14,0 2 1 6 3 NNO 1008,4 11 0,0
20.08.2018 05:00:00 14,8 14,3 0 0 6 3 N 1008,8 6 0,0
20.08.2018 04:00:00 14,8 14,3 0 0 5 3 N 1009,5 17 0,0
20.08.2018 03:00:00 14,6 14,1 0 0 5 3 N 1009,9 14 0,7
20.08.2018 02:00:00 14,5 13,7 0 0 9 5 N 1010,6 11 0,7
20.08.2018 01:00:00 14,5 13,4 4 2 12 6 ZZW 1011,0 16 0,3
20.08.2018 00:00:00 15,1 13,0 6 3 18 10 ZW 1011,5 16 0,1
19.08.2018 23:00:00 15,9 12,6 8 4 18 10 ZW 1011,8 21 0,1
19.08.2018 22:00:00 18,1 10,5 9 5 17 9 WZW 1011,9 33 0,0
19.08.2018 21:00:00 18,6 8,3 5 3 14 8 WZW 1012,2 36 0,0
19.08.2018 20:00:00 19,0 7,7 5 3 19 11 W 1012,3 50 0,0
19.08.2018 19:00:00 20,3 8,0 7 4 29 16 W 1012,3 46 0,0
19.08.2018 18:00:00 21,1 9,0 13 7 32 17 WZW 1012,4 40 0,0
19.08.2018 17:00:00 21,8 8,7 17 9 37 20 WZW 1012,4 36 0,0
19.08.2018 16:00:00 23,3 8,9 12 7 34 19 WZW 1012,3 39 0,0
19.08.2018 15:00:00 22,3 8,0 18 10 34 19 WZW 1012,6 39 0,0
19.08.2018 14:00:00 22,4 8,1 13 7 38 21 W 1012,5 37 0,0
19.08.2018 13:00:00 21,8 8,3 11 6 38 20 W 1012,6 39 0,0
19.08.2018 12:00:00 20,3 8,6 15 8 38 20 WZW 1012,7 37 0,0
19.08.2018 11:00:00 19,2 8,8 17 9 35 19 WZW 1012,7 32 0,0
19.08.2018 10:00:00 18,2 9,3 14 8 37 20 W 1012,7 36 0,0
19.08.2018 09:00:00 17,5 9,9 10 5 37 20 W 1012,6 37 0,0
19.08.2018 08:00:00 17,7 9,8 17 9 35 19 W 1012,3 36 0,0
19.08.2018 07:00:00 16,2 10,5 13 7 36 19 W 1012,3 40 0,0
19.08.2018 06:00:00 16,8 11,1 14 8 42 23 W 1011,6 48 0,0
19.08.2018 05:00:00 17,6 13,3 15 8 37 20 WZW 1011,0 50 0,0
19.08.2018 04:00:00 17,4 13,3 15 8 44 24 WZW 1011,0 50 0,0
19.08.2018 03:00:00 17,9 13,6 14 7 34 18 WZW 1011,0 50 0,0
19.08.2018 02:00:00 18,2 14,3 13 7 31 17 ZW 1011,1 50 0,0
19.08.2018 01:00:00 18,1 14,0 13 7 41 22 ZW 1011,3 50 0,0
19.08.2018 00:00:00 18,4 13,5 18 10 39 21 ZW 1011,4 50 0,0
18.08.2018 23:00:00 18,4 13,0 15 8 40 21 ZW 1011,7 50 0,0
18.08.2018 22:00:00 18,6 12,4 13 7 36 20 ZW 1011,8 46 0,0
18.08.2018 21:00:00 18,9 11,9 16 8 37 20 ZW 1012,4 50 0,0
18.08.2018 20:00:00 19,3 11,3 12 7 35 19 ZW 1012,5 50 0,0
18.08.2018 19:00:00 19,6 11,1 15 8 35 19 ZW 1012,5 50 0,0
18.08.2018 18:00:00 20,2 10,9 16 9 35 19 ZW 1012,8 50 0,0
18.08.2018 17:00:00 20,5 9,7 16 9 32 18 ZW 1013,3 50 0,0
18.08.2018 16:00:00 21,3 8,9 15 8 35 19 ZW 1013,5 46 0,0
18.08.2018 15:00:00 21,8 8,0 17 9 34 18 ZW 1013,8 43 0,0
18.08.2018 14:00:00 21,1 7,7 14 8 34 18 ZW 1014,4 50 0,0
18.08.2018 13:00:00 21,2 8,8 14 7 27 15 ZZW 1014,5 44 0,0
18.08.2018 12:00:00 20,8 8,8 13 7 27 15 ZW 1015,1 44 0,0
18.08.2018 11:00:00 20,0 9,8 12 7 26 14 ZZW 1015,6 41 0,0
18.08.2018 10:00:00 19,1 11,2 9 5 22 12 ZW 1016,0 31 0,0
18.08.2018 09:00:00 17,2 12,3 8 5 20 11 ZW 1016,4 29 0,0
18.08.2018 08:00:00 15,9 12,1 7 4 14 8 ZW 1016,5 33 0,0
18.08.2018 07:00:00 13,4 11,1 6 3 12 6 ZW 1016,5 39 0,0
18.08.2018 06:00:00 12,3 10,5 5 3 10 6 ZZW 1016,1 38 0,0
18.08.2018 05:00:00 12,5 10,4 4 2 11 6 ZZW 1016,0 45 0,0
18.08.2018 04:00:00 12,9 10,3 6 3 14 8 ZW 1016,0 41 0,0
18.08.2018 03:00:00 13,7 10,5 8 4 14 8 ZW 1015,8 50 0,0
18.08.2018 02:00:00 13,8 10,6 5 3 11 6 ZW 1015,8 50 0,0
18.08.2018 01:00:00 14,3 10,9 7 4 14 7 ZW 1015,7 50 0,0
18.08.2018 00:00:00 14,6 11,6 6 3 11 6 ZW 1015,3 50 0,0
17.08.2018 23:00:00 14,8 12,3 5 3 9 5 ZZW 1014,9 50 0,0
17.08.2018 22:00:00 15,5 12,4 6 3 11 6 ZZW 1014,8 50 0,0
17.08.2018 21:00:00 16,4 12,4 6 3 10 5 Z 1014,7 50 0,0
17.08.2018 20:00:00 16,8 12,7 5 3 21 12 ZZW 1014,3 50 0,3
17.08.2018 19:00:00 19,6 11,6 6 3 29 16 W 1013,8 50 0,0
17.08.2018 18:00:00 21,6 13,5 14 8 30 16 WNW 1012,8 50 0,0
17.08.2018 17:00:00 23,3 14,0 13 7 32 17 WNW 1012,2 50 0,0
17.08.2018 16:00:00 24,4 14,5 11 6 28 15 WNW 1012,0 46 0,0
17.08.2018 15:00:00 25,7 15,4 9 5 22 12 W 1012,0 40 0,0
17.08.2018 14:00:00 23,9 17,4 6 3 19 10 W 1012,2 44 0,4
17.08.2018 13:00:00 24,7 15,3 12 6 24 13 W 1012,6 45 0,0
17.08.2018 12:00:00 25,9 15,9 10 5 21 11 ZZW 1012,9 39 0,0
17.08.2018 11:00:00 23,7 15,7 6 3 14 7 ZZO 1013,4 34 0,0
17.08.2018 10:00:00 22,5 15,8 8 4 17 9 ZZO 1013,6 41 0,0
17.08.2018 09:00:00 20,9 15,9 6 4 18 10 ZW 1013,8 44 0,0
17.08.2018 08:00:00 19,4 15,3 9 5 17 9 ZZW 1013,9 44 0,0
17.08.2018 07:00:00 18,4 15,1 8 4 17 9 Z 1014,0 42 0,0
17.08.2018 06:00:00 17,5 14,4 6 3 15 8 Z 1014,0 45 0,0
17.08.2018 05:00:00 17,9 14,2 6 4 15 8 Z 1014,1 48 0,0
17.08.2018 04:00:00 18,8 14,3 7 4 17 9 ZZW 1014,2 46 0,0
17.08.2018 03:00:00 19,0 14,0 7 4 22 12 ZZW 1014,2 47 0,0
17.08.2018 02:00:00 19,5 13,9 10 6 26 14 Z 1013,8 48 0,0
17.08.2018 01:00:00 19,8 14,4 12 7 23 12 Z 1014,0 50 0,0
17.08.2018 00:00:00 19,7 15,1 11 6 21 12 Z 1014,1 50 0,0
16.08.2018 23:00:00 19,9 15,7 9 5 17 9 ZZO 1013,8 50 0,0
16.08.2018 22:00:00 20,8 14,7 7 4 19 10 ZZO 1013,8 50 0,0
16.08.2018 21:00:00 21,4 14,3 6 4 15 8 ZZO 1013,8 35 0,0
16.08.2018 20:00:00 22,3 14,2 7 4 19 10 Z 1013,7 49 0,0
16.08.2018 19:00:00 23,0 14,0 8 4 21 11 ZZW 1013,8 50 0,0
16.08.2018 18:00:00 23,5 13,9 11 6 27 14 ZZW 1014,1 50 0,0
16.08.2018 17:00:00 23,8 14,8 11 6 25 14 Z 1014,2 44 0,0
16.08.2018 16:00:00 23,7 14,4 13 7 26 14 ZZW 1014,5 46 0,0
16.08.2018 15:00:00 23,9 14,6 13 7 25 14 ZZW 1014,7 46 0,0
16.08.2018 14:00:00 23,7 14,7 12 7 23 12 ZW 1014,9 49 0,0
16.08.2018 13:00:00 23,2 14,5 10 6 21 11 ZW 1015,0 50 0,0
16.08.2018 12:00:00 22,2 14,8 8 5 22 12 ZW 1015,2 45 0,0
16.08.2018 11:00:00 22,7 14,8 8 5 18 10 Z 1015,4 48 0,0
16.08.2018 10:00:00 20,8 15,6 8 5 14 8 ZZW 1015,5 44 0,0
16.08.2018 09:00:00 18,8 14,7 5 3 13 7 Z 1015,6 44 0,0
16.08.2018 08:00:00 16,7 13,8 3 2 6 4 ZZO 1015,7 50 0,0
16.08.2018 07:00:00 15,4 13,6 3 2 7 4 ZZO 1015,9 50 0,0
16.08.2018 06:00:00 13,2 12,6 2 1 4 2 OZO 1015,7 38 0,0
16.08.2018 05:00:00 13,2 12,3 0 0 6 3 N 1015,6 50 0,0
16.08.2018 04:00:00 15,1 13,0 3 2 6 4 Z 1015,4 50 0,0
16.08.2018 03:00:00 15,8 12,9 0 0 7 4 N 1015,4 50 0,0
16.08.2018 02:00:00 15,6 12,7 3 2 9 5 ZZW 1015,5 50 0,0
16.08.2018 01:00:00 15,4 12,2 4 2 11 6 ZW 1015,4 50 0,0

tt = temperatuur
td = dauwpunt
ff = windsnelheid
fx = windstoten
dd = windrichting
ppp = luchtdruk
vv = zicht
rr = neerslag

Weerstations in de omgeving